Location: ?????????
(41.2286°N, 23.0068°E)
Time: 09:18:38
(UTC+00:00)

Cosmos 2278 Rocket - Pass Details

Date: 08 November 2025
Orbit: 841 x 843 km, 71.0° (Epoch: 05 December)

Event Time Altitude Azimuth Distance (km) Brightness Sun altitude
Exits shadow 03:29:40 - 339° (NNW) 2,947 4.8 -18.7°
Reaches altitude 10° 03:30:56 10° 341° (NNW) 2,467 4.4 -18.4°
Maximum altitude 03:36:34 69° 64° (ENE) 902 2.5 -17.4°
Drops below altitude 10° 03:42:11 10° 148° (SSE) 2,452 5.2 -16.3°
Sets 03:44:38 0° 151° (SSE) 3,383 5.9 -15.9°
